Felix-Klein-Gymnasium, Gttingen, 150m NN
Wetterdaten: aktuell Samstag, 24.06.2017 05:30
Datum Zeit Temp. A. Feuchte A. Luftdruck Regen Wind Richtung Richtung Sonnenschein Taupunkt Windchill Windben
24.06.2017 05:30 15,0 C 85 % 1012,0 hPa 0,0 mm 1,5 km/h (1 Bft) W-SW 251 0 min 12,5 C 15,0 C 4,8 km/h (1 Bft)
24.06.2017 05:15 15,5 C 85 % 1012,2 hPa 0,0 mm 0,1 km/h (0 Bft) W 268 0 min 13,0 C 15,5 C 3,2 km/h (1 Bft)
24.06.2017 05:00 15,8 C 84 % 1012,3 hPa 0,0 mm 0,0 km/h (0 Bft) W 268 0 min 13,1 C 15,8 C 0,0 km/h (0 Bft)
24.06.2017 04:45 15,9 C 82 % 1012,3 hPa 0,0 mm 0,0 km/h (0 Bft) W 268 0 min 12,8 C 15,9 C 0,0 km/h (0 Bft)
24.06.2017 04:30 16,2 C 82 % 1012,4 hPa 0,0 mm 0,0 km/h (0 Bft) W 268 0 min 13,1 C 16,2 C 1,6 km/h (1 Bft)
24.06.2017 04:15 16,4 C 80 % 1012,4 hPa 0,0 mm 0,7 km/h (0 Bft) W 268 0 min 12,9 C 16,4 C 4,8 km/h (1 Bft)
24.06.2017 04:00 16,8 C 80 % 1012,4 hPa 0,0 mm 0,1 km/h (0 Bft) W-NW 295 0 min 13,3 C 16,8 C 3,2 km/h (1 Bft)
24.06.2017 03:45 16,9 C 79 % 1012,5 hPa 0,0 mm 0,2 km/h (0 Bft) W-NW 295 0 min 13,2 C 16,9 C 4,8 km/h (1 Bft)
24.06.2017 03:30 16,9 C 79 % 1012,5 hPa 0,0 mm 1,0 km/h (0 Bft) W-SW 243 0 min 13,2 C 16,9 C 4,8 km/h (1 Bft)
24.06.2017 03:15 17,1 C 79 % 1012,6 hPa 0,0 mm 1,7 km/h (1 Bft) W-SW 239 0 min 13,4 C 17,1 C 6,4 km/h (2 Bft)
24.06.2017 03:00 17,3 C 78 % 1012,5 hPa 0,0 mm 0,7 km/h (0 Bft) NW 312 0 min 13,4 C 17,3 C 4,8 km/h (1 Bft)
24.06.2017 02:45 17,3 C 77 % 1012,3 hPa 0,0 mm 0,3 km/h (0 Bft) NW 316 0 min 13,2 C 17,3 C 4,8 km/h (1 Bft)
24.06.2017 02:30 17,6 C 78 % 1012,3 hPa 0,0 mm 0,0 km/h (0 Bft) NW 313 0 min 13,7 C 17,6 C 0,0 km/h (0 Bft)
24.06.2017 02:15 17,7 C 78 % 1012,3 hPa 0,0 mm 1,0 km/h (0 Bft) NW 313 0 min 13,8 C 17,7 C 6,4 km/h (2 Bft)
24.06.2017 02:00 17,9 C 77 % 1012,3 hPa 0,0 mm 1,0 km/h (0 Bft) SW 219 0 min 13,8 C 17,9 C 4,8 km/h (1 Bft)
24.06.2017 01:45 17,9 C 77 % 1012,3 hPa 0,0 mm 2,7 km/h (1 Bft) S-SW 205 0 min 13,8 C 17,9 C 9,7 km/h (2 Bft)
24.06.2017 01:30 17,7 C 79 % 1012,4 hPa 0,0 mm 0,9 km/h (0 Bft) SW 216 0 min 14,0 C 17,7 C 4,8 km/h (1 Bft)
24.06.2017 01:15 17,7 C 80 % 1012,4 hPa 0,0 mm 1,8 km/h (1 Bft) SW 236 0 min 14,2 C 17,7 C 8,0 km/h (2 Bft)
24.06.2017 01:00 17,7 C 80 % 1012,3 hPa 0,0 mm 4,0 km/h (1 Bft) SW 224 0 min 14,2 C 17,7 C 11,3 km/h (2 Bft)
24.06.2017 00:45 17,8 C 80 % 1012,3 hPa 0,0 mm 3,2 km/h (1 Bft) SW 222 0 min 14,3 C 17,8 C 9,7 km/h (2 Bft)
24.06.2017 00:30 18,0 C 79 % 1012,4 hPa 0,0 mm 2,0 km/h (1 Bft) W-SW 245 0 min 14,3 C 18,0 C 6,4 km/h (2 Bft)
24.06.2017 00:15 18,2 C 78 % 1012,4 hPa 0,0 mm 2,5 km/h (1 Bft) W-SW 240 0 min 14,3 C 18,2 C 6,4 km/h (2 Bft)
24.06.2017 00:00 18,5 C 77 % 1012,3 hPa 0,0 mm 1,4 km/h (1 Bft) W-SW 246 0 min 14,4 C 18,5 C 4,8 km/h (1 Bft)
23.06.2017 23:45 18,7 C 76 % 1012,4 hPa 0,0 mm 0,0 km/h (0 Bft) W-SW 245 0 min 14,4 C 18,7 C 4,8 km/h (1 Bft)
23.06.2017 23:30 19,1 C 75 % 1012,4 hPa 0,0 mm 1,6 km/h (1 Bft) W 267 0 min 14,6 C 19,1 C 6,4 km/h (2 Bft)
23.06.2017 23:15 19,7 C 73 % 1012,5 hPa 0,0 mm 1,6 km/h (1 Bft) NW 312 0 min 14,7 C 19,7 C 4,8 km/h (1 Bft)
23.06.2017 23:00 20,4 C 70 % 1012,4 hPa 0,0 mm 0,4 km/h (0 Bft) NW 322 0 min 14,7 C 20,4 C 4,8 km/h (1 Bft)
23.06.2017 22:45 20,8 C 67 % 1012,2 hPa 0,0 mm 0,4 km/h (0 Bft) N 4 0 min 14,4 C 20,8 C 4,8 km/h (1 Bft)
23.06.2017 22:30 21,1 C 66 % 1012,2 hPa 0,0 mm 3,3 km/h (1 Bft) N 4 0 min 14,5 C 21,1 C 8,0 km/h (2 Bft)
23.06.2017 22:15 21,4 C 65 % 1012,3 hPa 0,0 mm 3,2 km/h (1 Bft) N 6 0 min 14,5 C 21,4 C 8,0 km/h (2 Bft)
23.06.2017 22:00 21,7 C 64 % 1012,2 hPa 0,0 mm 4,4 km/h (1 Bft) N 11 0 min 14,6 C 21,7 C 8,0 km/h (2 Bft)
23.06.2017 21:45 22,1 C 62 % 1012,1 hPa 0,0 mm 8,2 km/h (2 Bft) N 352 0 min 14,5 C 22,1 C 16,1 km/h (3 Bft)
23.06.2017 21:30 22,3 C 61 % 1012,0 hPa 0,0 mm 6,8 km/h (2 Bft) N 354 0 min 14,4 C 22,3 C 12,9 km/h (3 Bft)
23.06.2017 21:15 22,7 C 60 % 1011,8 hPa 0,0 mm 7,8 km/h (2 Bft) N-NW 344 0 min 14,5 C 22,7 C 12,9 km/h (3 Bft)
23.06.2017 21:00 22,9 C 60 % 1011,8 hPa 0,0 mm 7,0 km/h (2 Bft) N 351 0 min 14,7 C 22,9 C 14,5 km/h (3 Bft)
23.06.2017 20:45 23,1 C 59 % 1011,6 hPa 0,0 mm 7,0 km/h (2 Bft) N-NW 346 0 min 14,6 C 23,1 C 17,7 km/h (3 Bft)
23.06.2017 20:30 23,3 C 58 % 1011,7 hPa 0,0 mm 9,0 km/h (2 Bft) N 351 0 min 14,6 C 23,3 C 17,7 km/h (3 Bft)
23.06.2017 20:15 23,6 C 58 % 1011,5 hPa 0,0 mm 9,9 km/h (2 Bft) N 357 0 min 14,8 C 23,6 C 17,7 km/h (3 Bft)
23.06.2017 20:00 24,0 C 57 % 1011,5 hPa 0,0 mm 6,0 km/h (2 Bft) N-NW 343 0 min 14,9 C 24,0 C 12,9 km/h (3 Bft)
23.06.2017 19:45 24,0 C 57 % 1011,3 hPa 0,0 mm 5,6 km/h (1 Bft) N 357 15 min 14,9 C 24,0 C 14,5 km/h (3 Bft)
23.06.2017 19:30 23,9 C 56 % 1011,4 hPa 0,0 mm 9,5 km/h (2 Bft) NW 322 15 min 14,6 C 23,9 C 17,7 km/h (3 Bft)
23.06.2017 19:15 24,0 C 56 % 1011,4 hPa 0,0 mm 12,6 km/h (3 Bft) N 357 15 min 14,7 C 24,0 C 24,1 km/h (4 Bft)
23.06.2017 19:00 24,2 C 55 % 1011,4 hPa 0,0 mm 10,5 km/h (2 Bft) N 7 15 min 14,6 C 24,2 C 19,3 km/h (3 Bft)
23.06.2017 18:45 24,4 C 53 % 1011,5 hPa 0,0 mm 13,0 km/h (3 Bft) N 359 15 min 14,2 C 24,4 C 27,4 km/h (4 Bft)
23.06.2017 18:30 24,4 C 55 % 1011,5 hPa 0,0 mm 10,0 km/h (2 Bft) NW 324 15 min 14,8 C 24,4 C 24,1 km/h (4 Bft)
23.06.2017 18:15 24,3 C 56 % 1011,5 hPa 0,0 mm 11,1 km/h (2 Bft) N-NW 344 15 min 14,9 C 24,3 C 22,5 km/h (4 Bft)
23.06.2017 18:00 23,9 C 55 % 1011,5 hPa 0,0 mm 11,3 km/h (2 Bft) N-NW 343 15 min 14,3 C 23,9 C 22,5 km/h (4 Bft)
23.06.2017 17:45 24,2 C 55 % 1011,6 hPa 0,0 mm 9,7 km/h (2 Bft) N 353 0 min 14,6 C 24,2 C 25,7 km/h (4 Bft)
23.06.2017 17:30 24,2 C 56 % 1011,6 hPa 0,0 mm 9,4 km/h (2 Bft) N 349 15 min 14,9 C 24,2 C 25,7 km/h (4 Bft)
23.06.2017 17:15 23,8 C 56 % 1011,5 hPa 0,0 mm 15,7 km/h (3 Bft) N-NW 341 15 min 14,5 C 23,8 C 30,6 km/h (5 Bft)
23.06.2017 17:00 23,8 C 57 % 1011,6 hPa 0,0 mm 12,2 km/h (2 Bft) N-NW 338 15 min 14,8 C 23,8 C 30,6 km/h (5 Bft)
23.06.2017 16:45 23,5 C 57 % 1011,7 hPa 0,0 mm 13,4 km/h (3 Bft) N-NW 334 15 min 14,5 C 23,5 C 24,1 km/h (4 Bft)
23.06.2017 16:30 23,7 C 55 % 1011,9 hPa 0,0 mm 15,0 km/h (3 Bft) N 4 15 min 14,1 C 23,7 C 30,6 km/h (5 Bft)
23.06.2017 16:15 23,3 C 56 % 1011,8 hPa 0,0 mm 13,9 km/h (3 Bft) N-NW 345 0 min 14,0 C 23,3 C 27,4 km/h (4 Bft)
23.06.2017 16:00 23,2 C 56 % 1011,9 hPa 0,0 mm 18,7 km/h (3 Bft) N-NW 345 15 min 13,9 C 23,2 C 35,4 km/h (5 Bft)
23.06.2017 15:45 23,3 C 57 % 1011,9 hPa 0,0 mm 14,8 km/h (3 Bft) N 3 0 min 14,3 C 23,3 C 32,2 km/h (5 Bft)
23.06.2017 15:30 23,3 C 57 % 1011,9 hPa 0,0 mm 14,7 km/h (3 Bft) N-NW 335 15 min 14,3 C 23,3 C 30,6 km/h (5 Bft)
23.06.2017 15:15 23,1 C 60 % 1011,7 hPa 0,0 mm 12,9 km/h (3 Bft) N 4 0 min 14,9 C 23,1 C 27,4 km/h (4 Bft)
23.06.2017 15:00 23,0 C 59 % 1011,8 hPa 0,0 mm 14,3 km/h (3 Bft) N 360 0 min 14,5 C 23,0 C 25,7 km/h (4 Bft)
23.06.2017 14:45 23,1 C 59 % 1011,8 hPa 0,0 mm 14,2 km/h (3 Bft) N-NW 331 15 min 14,6 C 23,1 C 29,0 km/h (5 Bft)
23.06.2017 14:30 23,2 C 59 % 1011,7 hPa 0,0 mm 14,2 km/h (3 Bft) N-NO 12 0 min 14,7 C 23,2 C 27,4 km/h (4 Bft)
23.06.2017 14:15 22,9 C 62 % 1011,7 hPa 0,0 mm 13,0 km/h (3 Bft) NW 316 15 min 15,2 C 22,9 C 24,1 km/h (4 Bft)
23.06.2017 14:00 22,7 C 63 % 1011,8 hPa 0,0 mm 11,8 km/h (2 Bft) N-NW 345 15 min 15,3 C 22,7 C 25,7 km/h (4 Bft)
23.06.2017 13:45 22,5 C 64 % 1011,8 hPa 0,0 mm 11,4 km/h (2 Bft) N-NW 337 0 min 15,3 C 22,5 C 25,7 km/h (4 Bft)
23.06.2017 13:30 21,8 C 64 % 1011,8 hPa 0,0 mm 13,7 km/h (3 Bft) N-NW 339 15 min 14,7 C 21,8 C 27,4 km/h (4 Bft)
23.06.2017 13:15 21,3 C 64 % 1011,9 hPa 0,0 mm 14,7 km/h (3 Bft) N-NO 14 0 min 14,2 C 21,3 C 37,0 km/h (5 Bft)
23.06.2017 13:00 21,5 C 66 % 1011,9 hPa 0,0 mm 13,4 km/h (3 Bft) N 350 0 min 14,9 C 21,5 C 29,0 km/h (5 Bft)
23.06.2017 12:45 21,3 C 66 % 1011,9 hPa 0,0 mm 14,2 km/h (3 Bft) N-NW 341 15 min 14,7 C 21,3 C 30,6 km/h (5 Bft)
23.06.2017 12:30 21,0 C 64 % 1011,6 hPa 0,0 mm 15,6 km/h (3 Bft) NW 321 15 min 13,9 C 21,0 C 33,8 km/h (5 Bft)
23.06.2017 12:15 21,4 C 65 % 1011,6 hPa 0,0 mm 15,2 km/h (3 Bft) NW 305 0 min 14,5 C 21,4 C 32,2 km/h (5 Bft)
23.06.2017 12:00 21,3 C 66 % 1011,5 hPa 0,0 mm 14,9 km/h (3 Bft) N-NW 334 15 min 14,7 C 21,3 C 30,6 km/h (5 Bft)
23.06.2017 11:45 21,3 C 64 % 1011,4 hPa 0,0 mm 13,0 km/h (3 Bft) N 351 15 min 14,2 C 21,3 C 27,4 km/h (4 Bft)
23.06.2017 11:30 20,7 C 67 % 1011,6 hPa 0,0 mm 14,6 km/h (3 Bft) N-NW 328 15 min 14,3 C 20,7 C 27,4 km/h (4 Bft)
23.06.2017 11:15 20,1 C 68 % 1011,5 hPa 0,0 mm 13,9 km/h (3 Bft) N-NW 347 15 min 14,0 C 20,1 C 32,2 km/h (5 Bft)
23.06.2017 11:00 20,2 C 68 % 1011,4 hPa 0,0 mm 19,0 km/h (3 Bft) N-NW 347 0 min 14,1 C 20,2 C 37,0 km/h (5 Bft)
23.06.2017 10:45 20,2 C 68 % 1011,4 hPa 0,0 mm 13,1 km/h (3 Bft) N 9 15 min 14,1 C 20,2 C 25,7 km/h (4 Bft)
23.06.2017 10:30 19,6 C 70 % 1011,3 hPa 0,0 mm 18,7 km/h (3 Bft) N 9 0 min 14,0 C 19,6 C 37,0 km/h (5 Bft)
23.06.2017 10:15 19,6 C 71 % 1011,1 hPa 0,0 mm 11,2 km/h (2 Bft) N 4 0 min 14,2 C 19,6 C 25,7 km/h (4 Bft)
23.06.2017 10:00 19,2 C 73 % 1011,1 hPa 0,0 mm 13,2 km/h (3 Bft) N 357 0 min 14,2 C 19,2 C 24,1 km/h (4 Bft)
23.06.2017 09:45 19,1 C 73 % 1011,0 hPa 0,0 mm 16,5 km/h (3 Bft) N-NO 12 0 min 14,1 C 19,1 C 35,4 km/h (5 Bft)
23.06.2017 09:30 18,7 C 75 % 1011,0 hPa 0,0 mm 11,1 km/h (2 Bft) N-NO 12 0 min 14,2 C 18,7 C 25,7 km/h (4 Bft)
23.06.2017 09:15 18,5 C 80 % 1010,9 hPa 0,0 mm 6,0 km/h (2 Bft) N-NW 332 0 min 15,0 C 18,5 C 17,7 km/h (3 Bft)
23.06.2017 09:00 18,4 C 81 % 1010,5 hPa 0,0 mm 7,4 km/h (2 Bft) N-NW 337 0 min 15,1 C 18,4 C 19,3 km/h (3 Bft)
23.06.2017 08:45 18,3 C 82 % 1010,4 hPa 0,0 mm 4,9 km/h (1 Bft) NW 312 0 min 15,2 C 18,3 C 16,1 km/h (3 Bft)
23.06.2017 08:30 18,1 C 84 % 1010,2 hPa 0,0 mm 4,5 km/h (1 Bft) W-NW 295 0 min 15,4 C 18,1 C 19,3 km/h (3 Bft)
23.06.2017 08:15 17,9 C 84 % 1010,0 hPa 0,0 mm 4,2 km/h (1 Bft) NW 314 0 min 15,2 C 17,9 C 16,1 km/h (3 Bft)
23.06.2017 08:00 17,9 C 85 % 1009,7 hPa 0,0 mm 3,0 km/h (1 Bft) W-NW 295 0 min 15,3 C 17,9 C 9,7 km/h (2 Bft)
23.06.2017 07:45 17,8 C 85 % 1009,5 hPa 0,0 mm 3,1 km/h (1 Bft) W 272 0 min 15,2 C 17,8 C 9,7 km/h (2 Bft)
23.06.2017 07:30 17,8 C 85 % 1009,4 hPa 0,0 mm 6,3 km/h (2 Bft) NW 312 0 min 15,2 C 17,8 C 16,1 km/h (3 Bft)
23.06.2017 07:15 17,7 C 84 % 1009,3 hPa 0,0 mm 6,2 km/h (2 Bft) N-NW 347 0 min 15,0 C 17,7 C 19,3 km/h (3 Bft)
23.06.2017 07:00 17,7 C 84 % 1009,1 hPa 0,0 mm 5,7 km/h (1 Bft) NW 326 0 min 15,0 C 17,7 C 16,1 km/h (3 Bft)
23.06.2017 06:45 17,7 C 84 % 1008,9 hPa 0,0 mm 6,2 km/h (2 Bft) N-NW 342 0 min 15,0 C 17,7 C 19,3 km/h (3 Bft)
23.06.2017 06:30 17,5 C 84 % 1008,9 hPa 0,0 mm 4,0 km/h (1 Bft) N 358 0 min 14,8 C 17,5 C 16,1 km/h (3 Bft)
23.06.2017 06:15 17,4 C 85 % 1008,8 hPa 0,0 mm 8,3 km/h (2 Bft) NW 326 0 min 14,8 C 17,4 C 22,5 km/h (4 Bft)
23.06.2017 06:00 17,4 C 85 % 1008,8 hPa 0,0 mm 9,0 km/h (2 Bft) N 6 0 min 14,8 C 17,4 C 27,4 km/h (4 Bft)
_ Min-Zeit 05:30 18:45 06:00 - 23:45 - - - 05:30 05:30 02:30
Minimum _ 15,0 C 53 % 1008,8 hPa - 0,0 km/h (0 Bft) - - - 12,5 C 15,0 C 0,0 km/h (0 Bft)
_ Max-Zeit 17:45 06:00 03:15 06:00 11:00 - - 10:45 08:30 18:30 10:30
Maximum _ 24,4 C 85 % 1012,6 hPa 0,0 mm 19,0 km/h
N-NW (3 Bft)
- - 15 min 15,4 C 24,4 C 37,0 km/h
N (5 Bft)
Durchschnitt _ 20,1 C 71 % 1011,4 hPa #0,0 mm 7,9 km/h (2 Bft) N - #0 min. 14,4 C 20,1 C 18,6 km/h (3 Bft)